This is the latest recevied weather packets stored in our database for station/object SP9KB-14. If no packets are shown the sender has not sent any weather packets the latest 1 day(s).
| Time | Temp. | Humidity | Pressure | Rain* | Wind** | Luminosity | Snow |
|---|---|---|---|---|---|---|---|
| 1778050716 | 17.78° C | 69% | 1030.5 hPa | 0 mm | - | - | - |
| 1778050416 | 17.78° C | 68% | 1030.4 hPa | 0 mm | - | - | - |
| 1778050115 | 18.33° C | 67% | 1030.3 hPa | 0 mm | - | - | - |
| 1778049514 | 17.22° C | 69% | 1030.4 hPa | 0 mm | - | - | - |
| 1778048913 | 17.22° C | 69% | 1030.2 hPa | 0 mm | - | - | - |
| 1778048612 | 17.22° C | 69% | 1030.1 hPa | 0 mm | - | - | - |
| 1778048312 | 17.22° C | 69% | 1030 hPa | 0 mm | - | - | - |
| 1778048011 | 16.67° C | 69% | 1030.2 hPa | 0 mm | - | - | - |
| 1778047711 | 17.22° C | 69% | 1030.1 hPa | 0 mm | - | - | - |
| 1778047410 | 17.22° C | 69% | 1030 hPa | 0 mm | - | - | - |
| 1778047110 | 16.67° C | 69% | 1030.2 hPa | 0 mm | - | - | - |
| 1778046509 | 16.67° C | 69% | 1029.9 hPa | 0 mm | - | - | - |
| 1778046208 | 16.67° C | 69% | 1030 hPa | 0 mm | - | - | - |
| 1778045607 | 16.67° C | 68% | 1029.7 hPa | 0 mm | - | - | - |
| 1778045306 | 16.67° C | 68% | 1030 hPa | 0 mm | - | - | - |
| 1778045006 | 16.67° C | 69% | 1029.7 hPa | 0 mm | - | - | - |
| 1778044705 | 16.67° C | 69% | 1030 hPa | 0 mm | - | - | - |
| 1778044104 | 16.11° C | 69% | 1029.8 hPa | 0 mm | - | - | - |
| 1778043503 | 15.56° C | 70% | 1029.8 hPa | 0 mm | - | - | - |
| 1778043202 | 15.56° C | 70% | 1030 hPa | 0 mm | - | - | - |
| 1778042902 | 15.56° C | 70% | 1029.8 hPa | 0 mm | - | - | - |
| 1778042601 | 15.56° C | 71% | 1029.8 hPa | 0 mm | - | - | - |
| 1778042301 | 15° C | 71% | 1029.8 hPa | 0 mm | - | - | - |
| 1778042000 | 15° C | 72% | 1029.7 hPa | 0 mm | - | - | - |
| 1778041700 | 14.44° C | 72% | 1029.8 hPa | 0 mm | - | - | - |
* Rain latest hour (hover to see other rain measurements)
** Current wind speed in m/s (hover to see current wind gust speed)